• In Österreich
  • Länderverzeichnis
  • Für 7 Tage
  • Wassertemperatur
  • Satellitenkarten
  • Wetterkarte
  • News
  • Widgets
  • user-avatar
    Anmelden

    Stündliche Wetter Sliwen

    Heute, 16 August, Donnerstag

    Zeit Temperatur Niederschläge Wind Luftdruck Luftfeuchtigkeit
    00:00 +22°C° 0 mm 1 m/S 731 mmHg 57%
    01:00 +21°C° 0 mm 1 m/S 731 mmHg 58%
    02:00 +21°C° 0 mm 1 m/S 730 mmHg 56%
    03:00 +21°C° 0 mm 1 m/S 730 mmHg 56%
    04:00 +20°C° 0 mm 1 m/S 730 mmHg 56%
    05:00 +19°C° 0 mm 2 m/S 730 mmHg 57%
    06:00 +21°C° 0 mm 2 m/S 731 mmHg 52%
    07:00 +24°C° 0 mm 2 m/S 731 mmHg 47%
    08:00 +26°C° 0 mm 3 m/S 731 mmHg 43%
    09:00 +28°C° 0 mm 3 m/S 731 mmHg 39%
    10:00 +29°C° 0 mm 4 m/S 731 mmHg 35%
    11:00 +32°C° 0 mm 4 m/S 731 mmHg 31%
    12:00 +33°C° 0 mm 4 m/S 731 mmHg 30%
    13:00 +34°C° 0 mm 4 m/S 731 mmHg 28%
    14:00 +34°C° 0 mm 4 m/S 731 mmHg 27%
    15:00 +34°C° 0 mm 4 m/S 731 mmHg 28%
    16:00 +33°C° 0 mm 4 m/S 731 mmHg 30%
    17:00 +33°C° 0 mm 4 m/S 730 mmHg 31%
    18:00 +30°C° 0 mm 3 m/S 730 mmHg 36%
    19:00 +28°C° 0 mm 3 m/S 730 mmHg 41%
    20:00 +26°C° 0 mm 2 m/S 730 mmHg 46%
    21:00 +25°C° 0 mm 2 m/S 730 mmHg 49%
    22:00 +24°C° 0 mm 1 m/S 730 mmHg 53%
    23:00 +23°C° 0 mm 1 m/S 730 mmHg 56%

    Morgen, 17 August, Freitag

    Zeit Temperatur Niederschläge Wind Luftdruck Luftfeuchtigkeit
    00:00 +22°C° 0 mm 1 m/S 730 mmHg 55%
    01:00 +22°C° 0 mm 1 m/S 730 mmHg 55%
    02:00 +22°C° 0 mm 1 m/S 730 mmHg 55%
    03:00 +20°C° 0 mm 2 m/S 730 mmHg 55%
    04:00 +20°C° 0 mm 2 m/S 730 mmHg 55%
    05:00 +20°C° 0 mm 2 m/S 730 mmHg 55%
    06:00 +23°C° 0 mm 2 m/S 730 mmHg 51%
    07:00 +24°C° 0 mm 2 m/S 731 mmHg 48%
    08:00 +26°C° 0 mm 3 m/S 731 mmHg 45%
    09:00 +28°C° 0 mm 3 m/S 731 mmHg 40%
    10:00 +30°C° 0 mm 4 m/S 731 mmHg 36%
    11:00 +33°C° 0 mm 4 m/S 731 mmHg 32%
    12:00 +34°C° 0 mm 4 m/S 731 mmHg 29%
    13:00 +35°C° 0 mm 4 m/S 731 mmHg 27%
    14:00 +36°C° 0 mm 5 m/S 731 mmHg 24%
    15:00 +35°C° 0 mm 4 m/S 730 mmHg 26%
    16:00 +34°C° 0 mm 4 m/S 730 mmHg 28%
    17:00 +33°C° 0 mm 4 m/S 730 mmHg 29%
    18:00 +30°C° 0 mm 3 m/S 730 mmHg 34%
    19:00 +28°C° 0 mm 3 m/S 730 mmHg 39%
    20:00 +26°C° 0 mm 2 m/S 730 mmHg 44%
    21:00 +25°C° 0 mm 2 m/S 731 mmHg 47%
    22:00 +24°C° 0 mm 1 m/S 731 mmHg 50%
    23:00 +23°C° 0 mm 1 m/S 731 mmHg 53%

    übermorgen, 18 August, Samstag

    Zeit Temperatur Niederschläge Wind Luftdruck Luftfeuchtigkeit
    00:00 +23°C° 0 mm 1 m/S 731 mmHg 52%
    01:00 +23°C° 0 mm 1 m/S 731 mmHg 52%
    02:00 +22°C° 0 mm 1 m/S 731 mmHg 51%
    03:00 +21°C° 0 mm 2 m/S 731 mmHg 51%
    04:00 +21°C° 0 mm 2 m/S 731 mmHg 51%
    05:00 +20°C° 0 mm 2 m/S 731 mmHg 51%
    06:00 +23°C° 0 mm 2 m/S 731 mmHg 48%
    07:00 +25°C° 0 mm 3 m/S 731 mmHg 44%
    08:00 +27°C° 0 mm 4 m/S 731 mmHg 41%
    09:00 +29°C° 0 mm 4 m/S 732 mmHg 37%
    10:00 +32°C° 0 mm 5 m/S 732 mmHg 33%
    11:00 +34°C° 0 mm 6 m/S 732 mmHg 29%
    12:00 +34°C° 0 mm 6 m/S 732 mmHg 29%
    13:00 +34°C° 0 mm 6 m/S 731 mmHg 29%
    14:00 +34°C° 0 mm 6 m/S 731 mmHg 28%
    15:00 +34°C° 0 mm 6 m/S 731 mmHg 29%
    16:00 +34°C° 0 mm 5 m/S 731 mmHg 30%
    17:00 +33°C° 0 mm 5 m/S 731 mmHg 31%
    18:00 +30°C° 0 mm 4 m/S 731 mmHg 36%
    19:00 +28°C° 0 mm 3 m/S 731 mmHg 41%
    20:00 +26°C° 0 mm 2 m/S 732 mmHg 46%
    21:00 +25°C° 0 mm 2 m/S 732 mmHg 49%
    22:00 +24°C° 0 mm 1 m/S 732 mmHg 52%
    23:00 +23°C° 0 mm 1 m/S 732 mmHg 55%

    19 August, Sonntag

    Zeit Temperatur Niederschläge Wind Luftdruck Luftfeuchtigkeit
    00:00 +23°C° 0 mm 1 m/S 732 mmHg 54%
    01:00 +22°C° 0 mm 1 m/S 732 mmHg 54%
    02:00 +22°C° 0 mm 1 m/S 732 mmHg 53%
    03:00 +22°C° 0 mm 1 m/S 732 mmHg 53%
    04:00 +21°C° 0 mm 1 m/S 732 mmHg 53%
    05:00 +21°C° 0 mm 1 m/S 732 mmHg 53%
    06:00 +23°C° 0 mm 2 m/S 732 mmHg 48%
    07:00 +25°C° 0 mm 2 m/S 732 mmHg 44%
    08:00 +27°C° 0 mm 2 m/S 733 mmHg 39%
    09:00 +29°C° 0 mm 3 m/S 733 mmHg 34%
    10:00 +32°C° 0 mm 4 m/S 733 mmHg 29%
    11:00 +34°C° 0 mm 4 m/S 733 mmHg 24%
    12:00 +34°C° 0 mm 5 m/S 733 mmHg 24%
    13:00 +35°C° 0 mm 5 m/S 732 mmHg 24%
    14:00 +35°C° 0 mm 5 m/S 732 mmHg 24%
    15:00 +35°C° 0 mm 5 m/S 732 mmHg 26%
    16:00 +34°C° 0 mm 5 m/S 732 mmHg 28%
    17:00 +33°C° 0 mm 5 m/S 731 mmHg 30%
    18:00 +30°C° 0 mm 4 m/S 732 mmHg 35%
    19:00 +28°C° 0 mm 3 m/S 732 mmHg 40%
    20:00 +26°C° 0 mm 2 m/S 732 mmHg 45%
    21:00 +25°C° 0 mm 2 m/S 732 mmHg 50%
    22:00 +24°C° 0 mm 2 m/S 732 mmHg 55%
    23:00 +23°C° 0 mm 1 m/S 732 mmHg 60%

    20 August, Montag

    Zeit Temperatur Niederschläge Wind Luftdruck Luftfeuchtigkeit
    00:00 +22°C° 0 mm 1 m/S 732 mmHg 61%
    01:00 +22°C° 0 mm 1 m/S 731 mmHg 63%
    02:00 +22°C° 0 mm 1 m/S 731 mmHg 64%
    03:00 +21°C° 0 mm 1 m/S 731 mmHg 64%
    04:00 +21°C° 0 mm 1 m/S 731 mmHg 63%
    05:00 +21°C° 0 mm 1 m/S 731 mmHg 62%
    06:00 +23°C° 0 mm 1 m/S 732 mmHg 57%
    07:00 +25°C° 0 mm 2 m/S 732 mmHg 51%
    08:00 +27°C° 0 mm 2 m/S 732 mmHg 45%
    09:00 +29°C° 0 mm 3 m/S 733 mmHg 40%
    10:00 +30°C° 0 mm 4 m/S 733 mmHg 35%
    11:00 +33°C° 0 mm 4 m/S 733 mmHg 30%
    12:00 +33°C° 0 mm 4 m/S 733 mmHg 30%
    13:00 +33°C° 0 mm 4 m/S 733 mmHg 31%
    14:00 +33°C° 0 mm 4 m/S 732 mmHg 31%
    15:00 +33°C° 0 mm 4 m/S 732 mmHg 32%
    16:00 +33°C° 0 mm 4 m/S 732 mmHg 33%
    17:00 +32°C° 0 mm 4 m/S 732 mmHg 34%
    18:00 +29°C° 0 mm 3 m/S 732 mmHg 39%
    19:00 +27°C° 0 mm 3 m/S 732 mmHg 44%
    20:00 +25°C° 0 mm 2 m/S 733 mmHg 49%
    21:00 +24°C° 0 mm 2 m/S 733 mmHg 52%
    22:00 +23°C° 0 mm 1 m/S 733 mmHg 55%
    23:00 +22°C° 0 mm 1 m/S 733 mmHg 58%

    21 August, Dienstag

    Zeit Temperatur Niederschläge Wind Luftdruck Luftfeuchtigkeit
    00:00 +22°C° 0 mm 1 m/S 733 mmHg 58%
    01:00 +22°C° 0 mm 1 m/S 733 mmHg 59%
    02:00 +21°C° 0 mm 1 m/S 733 mmHg 60%
    03:00 +21°C° 0 mm 1 m/S 733 mmHg 60%
    04:00 +21°C° 0 mm 1 m/S 733 mmHg 61%
    05:00 +20°C° 0 mm 1 m/S 733 mmHg 61%
    06:00 +22°C° 0 mm 1 m/S 733 mmHg 56%
    07:00 +24°C° 0 mm 2 m/S 734 mmHg 50%
    08:00 +25°C° 0 mm 2 m/S 734 mmHg 45%
    09:00 +27°C° 0 mm 2 m/S 734 mmHg 38%
    10:00 +29°C° 0 mm 3 m/S 734 mmHg 32%
    11:00 +32°C° 0 mm 4 m/S 734 mmHg 26%
    12:00 +32°C° 0 mm 4 m/S 734 mmHg 25%
    13:00 +33°C° 0 mm 4 m/S 734 mmHg 23%
    14:00 +34°C° 0 mm 5 m/S 733 mmHg 22%
    15:00 +33°C° 0 mm 5 m/S 733 mmHg 24%
    16:00 +32°C° 0 mm 5 m/S 733 mmHg 25%
    17:00 +32°C° 0 mm 5 m/S 733 mmHg 27%
    18:00 +28°C° 0 mm 4 m/S 733 mmHg 33%
    19:00 +26°C° 0 mm 3 m/S 733 mmHg 40%
    20:00 +22°C° 0 mm 3 m/S 733 mmHg 46%
    21:00 +21°C° 0 mm 2 m/S 733 mmHg 51%
    22:00 +20°C° 0 mm 2 m/S 733 mmHg 55%
    23:00 +20°C° 0 mm 1 m/S 733 mmHg 60%
    Mehr zeigen